Year,Month,Day,Hour,Minute,Value (Times are PST for temperature in C)
2015,06,17,00,00,13.40
2015,06,17,00,01,13.40
2015,06,17,00,02,13.40
2015,06,17,00,03,13.40
2015,06,17,00,04,13.40
2015,06,17,00,05,13.40
2015,06,17,00,06,13.40
2015,06,17,00,07,13.40
2015,06,17,00,08,13.40
2015,06,17,00,09,13.40
2015,06,17,00,10,13.40
2015,06,17,00,11,13.40
2015,06,17,00,12,13.40
2015,06,17,00,13,13.40
2015,06,17,00,14,13.40
2015,06,17,00,15,13.40
2015,06,17,00,16,13.30
2015,06,17,00,17,13.30
2015,06,17,00,18,13.30
2015,06,17,00,19,13.30
2015,06,17,00,20,13.30
2015,06,17,00,21,13.30
2015,06,17,00,22,13.20
2015,06,17,00,23,13.20
2015,06,17,00,24,13.20
2015,06,17,00,25,13.20
2015,06,17,00,26,13.20
2015,06,17,00,27,13.20
2015,06,17,00,28,13.20
2015,06,17,00,29,13.20
2015,06,17,00,30,13.20
2015,06,17,00,31,13.20
2015,06,17,00,32,13.10
2015,06,17,00,33,13.10
2015,06,17,00,34,13.10
2015,06,17,00,35,13.10
2015,06,17,00,36,13.10
2015,06,17,00,37,13.10
2015,06,17,00,38,13.10
2015,06,17,00,39,13.00
2015,06,17,00,40,13.00
2015,06,17,00,41,12.90
2015,06,17,00,42,12.90
2015,06,17,00,43,12.80
2015,06,17,00,44,12.80
2015,06,17,00,45,12.80
2015,06,17,00,46,12.70
2015,06,17,00,47,12.60
2015,06,17,00,48,12.60
2015,06,17,00,49,12.50
2015,06,17,00,50,12.50
2015,06,17,00,51,12.40
2015,06,17,00,52,12.40
2015,06,17,00,53,12.30
2015,06,17,00,54,12.30
2015,06,17,00,55,12.30
2015,06,17,00,56,12.30
2015,06,17,00,57,12.20
2015,06,17,00,58,12.20
2015,06,17,00,59,12.20
2015,06,17,01,00,12.20
2015,06,17,01,01,12.20
2015,06,17,01,02,12.20
2015,06,17,01,03,12.20
2015,06,17,01,04,12.20
2015,06,17,01,05,12.20
2015,06,17,01,06,12.20
2015,06,17,01,07,12.20
2015,06,17,01,08,12.10
2015,06,17,01,09,12.10
2015,06,17,01,10,12.10
2015,06,17,01,11,12.10
2015,06,17,01,12,12.10
2015,06,17,01,13,12.10
2015,06,17,01,14,12.00
2015,06,17,01,15,12.00
2015,06,17,01,16,11.90
2015,06,17,01,17,11.90
2015,06,17,01,18,11.90
2015,06,17,01,19,11.90
2015,06,17,01,20,11.90
2015,06,17,01,21,11.90
2015,06,17,01,22,11.90
2015,06,17,01,23,11.80
2015,06,17,01,24,11.80
2015,06,17,01,25,11.80
2015,06,17,01,26,11.80
2015,06,17,01,27,11.70
2015,06,17,01,28,11.70
2015,06,17,01,29,11.70
2015,06,17,01,30,11.70
2015,06,17,01,31,11.60
2015,06,17,01,32,11.60
2015,06,17,01,33,11.60
2015,06,17,01,34,11.60
2015,06,17,01,35,11.60
2015,06,17,01,36,11.50
2015,06,17,01,37,11.50
2015,06,17,01,38,11.50
2015,06,17,01,39,11.40
2015,06,17,01,40,11.40
2015,06,17,01,41,11.40
2015,06,17,01,42,11.40
2015,06,17,01,43,11.40
2015,06,17,01,44,11.40
2015,06,17,01,45,11.40
2015,06,17,01,46,11.30
2015,06,17,01,47,11.30
2015,06,17,01,48,11.30
2015,06,17,01,49,11.30
2015,06,17,01,50,11.30
2015,06,17,01,51,11.30
2015,06,17,01,52,11.20
2015,06,17,01,53,11.20
2015,06,17,01,54,11.20
2015,06,17,01,55,11.20
2015,06,17,01,56,11.20
2015,06,17,01,57,11.20
2015,06,17,01,58,11.20
2015,06,17,01,59,11.20
2015,06,17,02,00,11.20
2015,06,17,02,01,11.20
2015,06,17,02,02,11.20
2015,06,17,02,03,11.10
2015,06,17,02,04,11.10
2015,06,17,02,05,11.10
2015,06,17,02,06,11.10
2015,06,17,02,07,11.10
2015,06,17,02,08,11.10
2015,06,17,02,09,11.10
2015,06,17,02,10,11.10
2015,06,17,02,11,11.10
2015,06,17,02,12,11.10
2015,06,17,02,13,11.10
2015,06,17,02,14,11.10
2015,06,17,02,15,11.10
2015,06,17,02,16,11.10
2015,06,17,02,17,11.00
2015,06,17,02,18,11.00
2015,06,17,02,19,11.00
2015,06,17,02,20,11.00
2015,06,17,02,21,11.00
2015,06,17,02,22,11.00
2015,06,17,02,23,10.90
2015,06,17,02,24,10.90
2015,06,17,02,25,10.90
2015,06,17,02,26,10.90
2015,06,17,02,27,10.90
2015,06,17,02,28,10.90
2015,06,17,02,29,10.90
2015,06,17,02,30,10.90
2015,06,17,02,31,10.80
2015,06,17,02,32,10.80
2015,06,17,02,33,10.80
2015,06,17,02,34,10.80
2015,06,17,02,35,10.80
2015,06,17,02,36,10.80
2015,06,17,02,37,10.80
2015,06,17,02,38,10.80
2015,06,17,02,39,10.80
2015,06,17,02,40,10.70
2015,06,17,02,41,10.70
2015,06,17,02,42,10.70
2015,06,17,02,43,10.70
2015,06,17,02,44,10.70
2015,06,17,02,45,10.70
2015,06,17,02,46,10.60
2015,06,17,02,47,10.60
2015,06,17,02,48,10.60
2015,06,17,02,49,10.60
2015,06,17,02,50,10.60
2015,06,17,02,51,10.50
2015,06,17,02,52,10.50
2015,06,17,02,53,10.50
2015,06,17,02,54,10.50
2015,06,17,02,55,10.50
2015,06,17,02,56,10.40
2015,06,17,02,57,10.40
2015,06,17,02,58,10.40
2015,06,17,02,59,10.40
2015,06,17,03,00,10.40
2015,06,17,03,01,10.30
2015,06,17,03,02,10.30
2015,06,17,03,03,10.30
2015,06,17,03,04,10.30
2015,06,17,03,05,10.30
2015,06,17,03,06,10.30
2015,06,17,03,07,10.30
2015,06,17,03,08,10.30
2015,06,17,03,09,10.30
2015,06,17,03,10,10.20
2015,06,17,03,11,10.20
2015,06,17,03,12,10.20
2015,06,17,03,13,10.20
2015,06,17,03,14,10.20
2015,06,17,03,15,10.20
2015,06,17,03,16,10.20
2015,06,17,03,17,10.20
2015,06,17,03,18,10.20
2015,06,17,03,19,10.10
2015,06,17,03,20,10.10
2015,06,17,03,21,10.10
2015,06,17,03,22,10.10
2015,06,17,03,23,10.10
2015,06,17,03,24,10.10
2015,06,17,03,25,10.10
2015,06,17,03,26,10.10
2015,06,17,03,27,10.10
2015,06,17,03,28,10.10
2015,06,17,03,29,10.10
2015,06,17,03,30,10.10
2015,06,17,03,31,10.10
2015,06,17,03,32,10.00
2015,06,17,03,33,10.00
2015,06,17,03,34,10.00
2015,06,17,03,35,9.90
2015,06,17,03,36,9.90
2015,06,17,03,37,9.90
2015,06,17,03,38,9.90
2015,06,17,03,39,9.90
2015,06,17,03,40,9.90
2015,06,17,03,41,9.90
2015,06,17,03,42,9.80
2015,06,17,03,43,9.80
2015,06,17,03,44,9.80
2015,06,17,03,45,9.80
2015,06,17,03,46,9.80
2015,06,17,03,47,9.80
2015,06,17,03,48,9.80
2015,06,17,03,49,9.80
2015,06,17,03,50,9.80
2015,06,17,03,51,9.80
2015,06,17,03,52,9.80
2015,06,17,03,53,9.80
2015,06,17,03,54,9.80
2015,06,17,03,55,9.80
2015,06,17,03,56,9.80
2015,06,17,03,57,9.80
2015,06,17,03,58,9.80
2015,06,17,03,59,9.80
2015,06,17,04,00,9.70
2015,06,17,04,01,9.70
2015,06,17,04,02,9.70
2015,06,17,04,03,9.70
2015,06,17,04,04,9.70
2015,06,17,04,05,9.70
2015,06,17,04,06,9.70
2015,06,17,04,07,9.70
2015,06,17,04,08,9.70
2015,06,17,04,09,9.70
2015,06,17,04,10,9.70
2015,06,17,04,11,9.70
2015,06,17,04,12,9.70
2015,06,17,04,13,9.60
2015,06,17,04,14,9.60
2015,06,17,04,15,9.60
2015,06,17,04,16,9.60
2015,06,17,04,17,9.60
2015,06,17,04,18,9.60
2015,06,17,04,19,9.60
2015,06,17,04,20,9.60
2015,06,17,04,21,9.60
2015,06,17,04,22,9.60
2015,06,17,04,23,9.50
2015,06,17,04,24,9.50
2015,06,17,04,25,9.50
2015,06,17,04,26,9.50
2015,06,17,04,27,9.50
2015,06,17,04,28,9.50
2015,06,17,04,29,9.50
2015,06,17,04,30,9.50
2015,06,17,04,31,9.40
2015,06,17,04,32,9.40
2015,06,17,04,33,9.40
2015,06,17,04,34,9.40
2015,06,17,04,35,9.40
2015,06,17,04,36,9.40
2015,06,17,04,37,9.40
2015,06,17,04,38,9.40
2015,06,17,04,39,9.40
2015,06,17,04,40,9.40
2015,06,17,04,41,9.30
2015,06,17,04,42,9.30
2015,06,17,04,43,9.30
2015,06,17,04,44,9.30
2015,06,17,04,45,9.30
2015,06,17,04,46,9.30
2015,06,17,04,47,9.30
2015,06,17,04,48,9.30
2015,06,17,04,49,9.30
2015,06,17,04,50,9.30
2015,06,17,04,51,9.30
2015,06,17,04,52,9.30
2015,06,17,04,53,9.30
2015,06,17,04,54,9.30
2015,06,17,04,55,9.30
2015,06,17,04,56,9.30
2015,06,17,04,57,9.30
2015,06,17,04,58,9.30
2015,06,17,04,59,9.20
2015,06,17,05,00,9.20
2015,06,17,05,01,9.20
2015,06,17,05,02,9.20
2015,06,17,05,03,9.20
2015,06,17,05,04,9.20
2015,06,17,05,05,9.20
2015,06,17,05,06,9.20
2015,06,17,05,07,9.20
2015,06,17,05,08,9.20
2015,06,17,05,09,9.10
2015,06,17,05,10,9.10
2015,06,17,05,11,9.10
2015,06,17,05,12,9.10
2015,06,17,05,13,9.10
2015,06,17,05,14,9.10
2015,06,17,05,15,9.10
2015,06,17,05,16,9.10
2015,06,17,05,17,9.10
2015,06,17,05,18,9.10
2015,06,17,05,19,9.00
2015,06,17,05,20,9.00
2015,06,17,05,21,9.00
2015,06,17,05,22,9.00
2015,06,17,05,23,9.00
2015,06,17,05,24,9.00
2015,06,17,05,25,9.00
2015,06,17,05,26,9.00
2015,06,17,05,27,9.00
2015,06,17,05,28,9.00
2015,06,17,05,29,9.00
2015,06,17,05,30,9.00
2015,06,17,05,31,9.00
2015,06,17,05,32,9.00
2015,06,17,05,33,9.00
2015,06,17,05,34,8.90
2015,06,17,05,35,8.90
2015,06,17,05,36,8.90
2015,06,17,05,37,8.90
2015,06,17,05,38,8.90
2015,06,17,05,39,8.90
2015,06,17,05,40,8.90
2015,06,17,05,41,8.90
2015,06,17,05,42,8.90
2015,06,17,05,43,8.90
2015,06,17,05,44,8.90
2015,06,17,05,45,8.90
2015,06,17,05,46,8.90
2015,06,17,05,47,8.90
2015,06,17,05,48,8.90
2015,06,17,05,49,8.90
2015,06,17,05,50,8.90
2015,06,17,05,51,8.90
2015,06,17,05,52,8.90
2015,06,17,05,53,8.90
2015,06,17,05,54,8.90
2015,06,17,05,55,8.90
2015,06,17,05,56,8.90
2015,06,17,05,57,8.90
2015,06,17,05,58,8.90
2015,06,17,05,59,8.90
2015,06,17,06,00,8.90
2015,06,17,06,01,8.90
2015,06,17,06,02,8.90
2015,06,17,06,03,8.90
2015,06,17,06,04,9.00
2015,06,17,06,05,9.00
2015,06,17,06,06,9.00
2015,06,17,06,07,9.00
2015,06,17,06,08,9.00
2015,06,17,06,09,9.00
2015,06,17,06,10,9.00
2015,06,17,06,11,9.00
2015,06,17,06,12,9.00
2015,06,17,06,13,9.00
2015,06,17,06,14,9.00
2015,06,17,06,15,9.00
2015,06,17,06,16,9.00
2015,06,17,06,17,9.00
2015,06,17,06,18,9.10
2015,06,17,06,19,9.10
2015,06,17,06,20,9.10
2015,06,17,06,21,9.10
2015,06,17,06,22,9.10
2015,06,17,06,23,9.10
2015,06,17,06,24,9.10
2015,06,17,06,25,9.10
2015,06,17,06,26,9.10
2015,06,17,06,27,9.20
2015,06,17,06,28,9.20
2015,06,17,06,29,9.20
2015,06,17,06,30,9.20
2015,06,17,06,31,9.20
2015,06,17,06,32,9.20
2015,06,17,06,33,9.20
2015,06,17,06,34,9.20
2015,06,17,06,35,9.20
2015,06,17,06,36,9.30
2015,06,17,06,37,9.30
2015,06,17,06,38,9.30
2015,06,17,06,39,9.30
2015,06,17,06,40,9.30
2015,06,17,06,41,9.30
2015,06,17,06,42,9.30
2015,06,17,06,43,9.30
2015,06,17,06,44,9.30
2015,06,17,06,45,9.30
2015,06,17,06,46,9.30
2015,06,17,06,47,9.30
2015,06,17,06,48,9.30
2015,06,17,06,49,9.40
2015,06,17,06,50,9.40
2015,06,17,06,51,9.40
2015,06,17,06,52,9.40
2015,06,17,06,53,9.40
2015,06,17,06,54,9.40
2015,06,17,06,55,9.40
2015,06,17,06,56,9.50
2015,06,17,06,57,9.60
2015,06,17,06,58,9.60
2015,06,17,06,59,9.70
2015,06,17,07,00,9.70
2015,06,17,07,01,9.80
2015,06,17,07,02,9.80
2015,06,17,07,03,9.90
2015,06,17,07,04,10.00
2015,06,17,07,05,10.00
2015,06,17,07,06,10.10
2015,06,17,07,07,10.10
2015,06,17,07,08,10.20
2015,06,17,07,09,10.20
2015,06,17,07,10,10.20
2015,06,17,07,11,10.20
2015,06,17,07,12,10.30
2015,06,17,07,13,10.30
2015,06,17,07,14,10.30
2015,06,17,07,15,10.40
2015,06,17,07,16,10.40
2015,06,17,07,17,10.40
2015,06,17,07,18,10.50
2015,06,17,07,19,10.50
2015,06,17,07,20,10.50
2015,06,17,07,21,10.60
2015,06,17,07,22,10.60
2015,06,17,07,23,10.70
2015,06,17,07,24,10.70
2015,06,17,07,25,10.80
2015,06,17,07,26,10.80
2015,06,17,07,27,10.80
2015,06,17,07,28,10.80
2015,06,17,07,29,10.90
2015,06,17,07,30,10.90
2015,06,17,07,31,10.90
2015,06,17,07,32,10.90
2015,06,17,07,33,11.00
2015,06,17,07,34,11.00
2015,06,17,07,35,11.10
2015,06,17,07,36,11.10
2015,06,17,07,37,11.10
2015,06,17,07,38,11.20
2015,06,17,07,39,11.20
2015,06,17,07,40,11.30
2015,06,17,07,41,11.30
2015,06,17,07,42,11.30
2015,06,17,07,43,11.30
2015,06,17,07,44,11.40
2015,06,17,07,45,11.40
2015,06,17,07,46,11.50
2015,06,17,07,47,11.50
2015,06,17,07,48,11.60
2015,06,17,07,49,11.60
2015,06,17,07,50,11.70
2015,06,17,07,51,11.70
2015,06,17,07,52,11.80
2015,06,17,07,53,11.80
2015,06,17,07,54,11.90
2015,06,17,07,55,11.90
2015,06,17,07,56,12.00
2015,06,17,07,57,12.00
2015,06,17,07,58,12.10
2015,06,17,07,59,12.10
2015,06,17,08,00,12.20
2015,06,17,08,01,12.20
2015,06,17,08,02,12.30
2015,06,17,08,03,12.30
2015,06,17,08,04,12.40
2015,06,17,08,05,12.40
2015,06,17,08,06,12.50
2015,06,17,08,07,12.60
2015,06,17,08,08,12.60
2015,06,17,08,09,12.70
2015,06,17,08,10,12.80
2015,06,17,08,11,12.80
2015,06,17,08,12,12.80
2015,06,17,08,13,12.90
2015,06,17,08,14,12.90
2015,06,17,08,15,13.00
2015,06,17,08,16,13.00
2015,06,17,08,17,13.10
2015,06,17,08,18,13.10
2015,06,17,08,19,13.10
2015,06,17,08,20,13.10
2015,06,17,08,21,13.20
2015,06,17,08,22,13.20
2015,06,17,08,23,13.20
2015,06,17,08,24,13.20
2015,06,17,08,25,13.10
2015,06,17,08,26,13.10
2015,06,17,08,27,13.10
2015,06,17,08,28,13.10
2015,06,17,08,29,13.10
2015,06,17,08,30,13.10
2015,06,17,08,31,13.10
2015,06,17,08,32,13.10
2015,06,17,08,33,13.10
2015,06,17,08,34,13.00
2015,06,17,08,35,13.00
2015,06,17,08,36,13.00
2015,06,17,08,37,13.00
2015,06,17,08,38,13.00
2015,06,17,08,39,13.10
2015,06,17,08,40,13.10
2015,06,17,08,41,13.10
2015,06,17,08,42,13.10
2015,06,17,08,43,13.20
2015,06,17,08,44,13.20
2015,06,17,08,45,13.30
2015,06,17,08,46,13.30
2015,06,17,08,47,13.40
2015,06,17,08,48,13.50
2015,06,17,08,49,13.60
2015,06,17,08,50,13.70
2015,06,17,08,51,13.70
2015,06,17,08,52,13.70
2015,06,17,08,53,13.80
2015,06,17,08,54,13.90
2015,06,17,08,55,14.00
2015,06,17,08,56,14.10
2015,06,17,08,57,14.10
2015,06,17,08,58,14.10
2015,06,17,08,59,14.10
2015,06,17,09,00,14.10
2015,06,17,09,01,14.20
2015,06,17,09,02,14.20
2015,06,17,09,03,14.20
2015,06,17,09,04,14.20
2015,06,17,09,05,14.30
2015,06,17,09,06,14.30
2015,06,17,09,07,14.30
2015,06,17,09,08,14.30
2015,06,17,09,09,14.40
2015,06,17,09,10,14.40
2015,06,17,09,11,14.40
2015,06,17,09,12,14.40
2015,06,17,09,13,14.40
2015,06,17,09,14,14.40
2015,06,17,09,15,14.40
2015,06,17,09,16,14.50
2015,06,17,09,17,14.50
2015,06,17,09,18,14.60
2015,06,17,09,19,14.60
2015,06,17,09,20,14.70
2015,06,17,09,21,14.70
2015,06,17,09,22,14.80
2015,06,17,09,23,14.80
2015,06,17,09,24,14.80
2015,06,17,09,25,14.80
2015,06,17,09,26,14.80
2015,06,17,09,27,14.90
2015,06,17,09,28,15.00
2015,06,17,09,29,15.00
2015,06,17,09,30,15.00
2015,06,17,09,31,15.00
2015,06,17,09,32,15.10
2015,06,17,09,33,15.20
2015,06,17,09,34,15.40
2015,06,17,09,35,15.50
2015,06,17,09,36,15.60
2015,06,17,09,37,15.60
2015,06,17,09,38,15.70
2015,06,17,09,39,15.80
2015,06,17,09,40,15.80
2015,06,17,09,41,15.80
2015,06,17,09,42,15.80
2015,06,17,09,43,15.80
2015,06,17,09,44,15.80
2015,06,17,09,45,15.80
2015,06,17,09,46,15.80
2015,06,17,09,47,15.70
2015,06,17,09,48,15.60
2015,06,17,09,49,15.60
2015,06,17,09,50,15.50
2015,06,17,09,51,15.50
2015,06,17,09,52,15.50
2015,06,17,09,53,15.60
2015,06,17,09,54,15.60
2015,06,17,09,55,15.70
2015,06,17,09,56,15.70
2015,06,17,09,57,15.80
2015,06,17,09,58,15.80
2015,06,17,09,59,15.90
2015,06,17,10,00,15.90
2015,06,17,10,01,16.00
2015,06,17,10,02,16.00
2015,06,17,10,03,16.10
2015,06,17,10,04,16.20
2015,06,17,10,05,16.30
2015,06,17,10,06,16.40
2015,06,17,10,07,16.60
2015,06,17,10,08,16.70
2015,06,17,10,09,16.80
2015,06,17,10,10,17.00
2015,06,17,10,11,17.10
2015,06,17,10,12,17.20
2015,06,17,10,13,17.30
2015,06,17,10,14,17.40
2015,06,17,10,15,17.50
2015,06,17,10,16,17.60
2015,06,17,10,17,17.70
2015,06,17,10,18,17.80
2015,06,17,10,19,18.00
2015,06,17,10,20,18.00
2015,06,17,10,21,18.10
2015,06,17,10,22,18.10
2015,06,17,10,23,17.90
2015,06,17,10,24,17.80
2015,06,17,10,25,17.70
2015,06,17,10,26,17.70
2015,06,17,10,27,17.60
2015,06,17,10,28,17.50
2015,06,17,10,29,17.40
2015,06,17,10,30,17.40
2015,06,17,10,31,17.40
2015,06,17,10,32,17.40
2015,06,17,10,33,17.50
2015,06,17,10,34,17.50
2015,06,17,10,35,17.60
2015,06,17,10,36,17.60
2015,06,17,10,37,17.60
2015,06,17,10,38,17.60
2015,06,17,10,39,17.60
2015,06,17,10,40,17.70
2015,06,17,10,41,17.70
2015,06,17,10,42,17.80
2015,06,17,10,43,17.90
2015,06,17,10,44,18.00
2015,06,17,10,45,18.20
2015,06,17,10,46,18.30
2015,06,17,10,47,18.50
2015,06,17,10,48,18.60
2015,06,17,10,49,18.80
2015,06,17,10,50,19.00
2015,06,17,10,51,19.10
2015,06,17,10,52,19.20
2015,06,17,10,53,19.30
2015,06,17,10,54,19.40
2015,06,17,10,55,19.40
2015,06,17,10,56,19.50
2015,06,17,10,57,19.50
2015,06,17,10,58,19.50
2015,06,17,10,59,19.60
2015,06,17,11,00,19.70
2015,06,17,11,01,19.70
2015,06,17,11,02,19.80
2015,06,17,11,03,19.90
2015,06,17,11,04,20.00
2015,06,17,11,05,20.20
2015,06,17,11,06,20.20
2015,06,17,11,07,20.30
2015,06,17,11,08,20.40
2015,06,17,11,09,20.40
2015,06,17,11,10,20.50
2015,06,17,11,11,20.60
2015,06,17,11,12,20.60
2015,06,17,11,13,20.60
2015,06,17,11,14,20.60
2015,06,17,11,15,20.60
2015,06,17,11,16,20.40
2015,06,17,11,17,20.20
2015,06,17,11,18,20.10
2015,06,17,11,19,20.00
2015,06,17,11,20,20.00
2015,06,17,11,21,19.90
2015,06,17,11,22,19.90
2015,06,17,11,23,20.00
2015,06,17,11,24,20.00
2015,06,17,11,25,20.10
2015,06,17,11,26,20.10
2015,06,17,11,27,20.20
2015,06,17,11,28,20.20
2015,06,17,11,29,20.40
2015,06,17,11,30,20.60
2015,06,17,11,31,20.70
2015,06,17,11,32,20.80
2015,06,17,11,33,20.90
2015,06,17,11,34,20.90
2015,06,17,11,35,20.80
2015,06,17,11,36,20.80
2015,06,17,11,37,20.70
2015,06,17,11,38,20.70
2015,06,17,11,39,20.60
2015,06,17,11,40,20.60
2015,06,17,11,41,20.50
2015,06,17,11,42,20.50
2015,06,17,11,43,20.40
2015,06,17,11,44,20.30
2015,06,17,11,45,20.30
2015,06,17,11,46,20.30
2015,06,17,11,47,20.20
2015,06,17,11,48,20.20
2015,06,17,11,49,20.20
2015,06,17,11,50,20.10
2015,06,17,11,51,20.00
2015,06,17,11,52,19.90
2015,06,17,11,53,19.90
2015,06,17,11,54,19.90
2015,06,17,11,55,19.90
2015,06,17,11,56,19.90
2015,06,17,11,57,20.00
2015,06,17,11,58,20.00
2015,06,17,11,59,20.10
2015,06,17,12,00,20.10
2015,06,17,12,01,20.10
2015,06,17,12,02,20.10
2015,06,17,12,03,20.10
2015,06,17,12,04,20.20
2015,06,17,12,05,20.20
2015,06,17,12,06,20.30
2015,06,17,12,07,20.40
2015,06,17,12,08,20.50
2015,06,17,12,09,20.50
2015,06,17,12,10,20.60
2015,06,17,12,11,20.70
2015,06,17,12,12,20.80
2015,06,17,12,13,20.80
2015,06,17,12,14,20.80
2015,06,17,12,15,20.90
2015,06,17,12,16,21.00
2015,06,17,12,17,21.10
2015,06,17,12,18,21.30
2015,06,17,12,19,21.40
2015,06,17,12,20,21.60
2015,06,17,12,21,21.70
2015,06,17,12,22,21.80
2015,06,17,12,23,21.90
2015,06,17,12,24,21.90
2015,06,17,12,25,21.90
2015,06,17,12,26,21.90
2015,06,17,12,27,21.80
2015,06,17,12,28,21.80
2015,06,17,12,29,21.70
2015,06,17,12,30,21.70
2015,06,17,12,31,21.80
2015,06,17,12,32,21.90
2015,06,17,12,33,22.00
2015,06,17,12,34,22.10
2015,06,17,12,35,22.20
2015,06,17,12,36,22.40
2015,06,17,12,37,22.40
2015,06,17,12,38,22.40
2015,06,17,12,39,22.50
2015,06,17,12,40,22.50
2015,06,17,12,41,22.60
2015,06,17,12,42,22.60
2015,06,17,12,43,22.60
2015,06,17,12,44,22.50
2015,06,17,12,45,22.40
2015,06,17,12,46,22.40
2015,06,17,12,47,22.40
2015,06,17,12,48,22.30
2015,06,17,12,49,22.30
2015,06,17,12,50,22.30
2015,06,17,12,51,22.30
2015,06,17,12,52,22.30
2015,06,17,12,53,22.30
2015,06,17,12,54,22.40
2015,06,17,12,55,22.40
2015,06,17,12,56,22.50
2015,06,17,12,57,22.60
2015,06,17,12,58,22.70
2015,06,17,12,59,22.80
2015,06,17,13,00,22.90
2015,06,17,13,01,23.00
2015,06,17,13,02,23.10
2015,06,17,13,03,23.10
2015,06,17,13,04,23.20
2015,06,17,13,05,23.30
2015,06,17,13,06,23.30
2015,06,17,13,07,23.40
2015,06,17,13,08,23.50
2015,06,17,13,09,23.50
2015,06,17,13,10,23.60
2015,06,17,13,11,23.60
2015,06,17,13,12,23.60
2015,06,17,13,13,23.50
2015,06,17,13,14,23.40
2015,06,17,13,15,23.40
2015,06,17,13,16,23.30
2015,06,17,13,17,23.30
2015,06,17,13,18,23.30
2015,06,17,13,19,23.20
2015,06,17,13,20,23.30
2015,06,17,13,21,23.40
2015,06,17,13,22,23.50
2015,06,17,13,23,23.60
2015,06,17,13,24,23.70
2015,06,17,13,25,23.80
2015,06,17,13,26,23.80
2015,06,17,13,27,23.80
2015,06,17,13,28,23.70
2015,06,17,13,29,23.80
2015,06,17,13,30,23.80
2015,06,17,13,31,23.90
2015,06,17,13,32,24.00
2015,06,17,13,33,24.10
2015,06,17,13,34,24.20
2015,06,17,13,35,24.20
2015,06,17,13,36,24.20
2015,06,17,13,37,24.20
2015,06,17,13,38,24.20
2015,06,17,13,39,24.10
2015,06,17,13,40,24.10
2015,06,17,13,41,24.10
2015,06,17,13,42,24.10
2015,06,17,13,43,24.00
2015,06,17,13,44,23.90
2015,06,17,13,45,23.90
2015,06,17,13,46,23.90
2015,06,17,13,47,23.90
2015,06,17,13,48,23.80
2015,06,17,13,49,23.70
2015,06,17,13,50,23.70
2015,06,17,13,51,23.70
2015,06,17,13,52,23.60
2015,06,17,13,53,23.60
2015,06,17,13,54,23.60
2015,06,17,13,55,23.60
2015,06,17,13,56,23.70
2015,06,17,13,57,23.70
2015,06,17,13,58,23.80
2015,06,17,13,59,23.80
2015,06,17,14,00,23.80
2015,06,17,14,01,23.80
2015,06,17,14,02,23.80
2015,06,17,14,03,23.80
2015,06,17,14,04,23.80
2015,06,17,14,05,23.70
2015,06,17,14,06,23.70
2015,06,17,14,07,23.70
2015,06,17,14,08,23.60
2015,06,17,14,09,23.60
2015,06,17,14,10,23.60
2015,06,17,14,11,23.60
2015,06,17,14,12,23.70
2015,06,17,14,13,23.70
2015,06,17,14,14,23.80
2015,06,17,14,15,23.80
2015,06,17,14,16,23.80
2015,06,17,14,17,23.90
2015,06,17,14,18,23.90
2015,06,17,14,19,24.00
2015,06,17,14,20,24.10
2015,06,17,14,21,24.20
2015,06,17,14,22,24.30
2015,06,17,14,23,24.40
2015,06,17,14,24,24.50
2015,06,17,14,25,24.60
2015,06,17,14,26,24.60
2015,06,17,14,27,24.50
2015,06,17,14,28,24.50
2015,06,17,14,29,24.60
2015,06,17,14,30,24.60
2015,06,17,14,31,24.70
2015,06,17,14,32,24.70
2015,06,17,14,33,24.80
2015,06,17,14,34,24.80
2015,06,17,14,35,24.60
2015,06,17,14,36,24.60
2015,06,17,14,37,24.60
2015,06,17,14,38,24.60
2015,06,17,14,39,24.60
2015,06,17,14,40,24.60
2015,06,17,14,41,24.60
2015,06,17,14,42,24.60
2015,06,17,14,43,24.60
2015,06,17,14,44,24.60
2015,06,17,14,45,24.50
2015,06,17,14,46,24.50
2015,06,17,14,47,24.60
2015,06,17,14,48,24.60
2015,06,17,14,49,24.60
2015,06,17,14,50,24.60
2015,06,17,14,51,24.60
2015,06,17,14,52,24.60
2015,06,17,14,53,24.50
2015,06,17,14,54,24.40
2015,06,17,14,55,24.30
2015,06,17,14,56,24.20
2015,06,17,14,57,24.10
2015,06,17,14,58,24.10
2015,06,17,14,59,24.00
2015,06,17,15,00,24.00
2015,06,17,15,01,24.10
2015,06,17,15,02,24.10
2015,06,17,15,03,24.20
2015,06,17,15,04,24.30
2015,06,17,15,05,24.40
2015,06,17,15,06,24.40
2015,06,17,15,07,24.40
2015,06,17,15,08,24.20
2015,06,17,15,09,24.10
2015,06,17,15,10,24.00
2015,06,17,15,11,23.90
2015,06,17,15,12,23.80
2015,06,17,15,13,23.70
2015,06,17,15,14,23.60
2015,06,17,15,15,23.50
2015,06,17,15,16,23.40
2015,06,17,15,17,23.30
2015,06,17,15,18,23.30
2015,06,17,15,19,23.30
2015,06,17,15,20,23.20
2015,06,17,15,21,23.20
2015,06,17,15,22,23.20
2015,06,17,15,23,23.20
2015,06,17,15,24,23.20
2015,06,17,15,25,23.20
2015,06,17,15,26,23.20
2015,06,17,15,27,23.20
2015,06,17,15,28,23.10
2015,06,17,15,29,23.00
2015,06,17,15,30,23.00
2015,06,17,15,31,22.90
2015,06,17,15,32,22.90
2015,06,17,15,33,22.80
2015,06,17,15,34,22.80
2015,06,17,15,35,22.80
2015,06,17,15,36,22.90
2015,06,17,15,37,22.90
2015,06,17,15,38,22.90
2015,06,17,15,39,23.00
2015,06,17,15,40,23.10
2015,06,17,15,41,23.10
2015,06,17,15,42,23.10
2015,06,17,15,43,23.00
2015,06,17,15,44,22.90
2015,06,17,15,45,22.90
2015,06,17,15,46,22.90
2015,06,17,15,47,22.80
2015,06,17,15,48,22.80
2015,06,17,15,49,22.80
2015,06,17,15,50,22.80
2015,06,17,15,51,22.80
2015,06,17,15,52,22.80
2015,06,17,15,53,22.80
2015,06,17,15,54,22.80
2015,06,17,15,55,22.80
2015,06,17,15,56,22.90
2015,06,17,15,57,23.00
2015,06,17,15,58,23.10
2015,06,17,15,59,23.20
2015,06,17,16,00,23.20
2015,06,17,16,01,23.30
2015,06,17,16,02,23.30
2015,06,17,16,03,23.30
2015,06,17,16,04,23.30
2015,06,17,16,05,23.30
2015,06,17,16,06,23.30
2015,06,17,16,07,23.30
2015,06,17,16,08,23.30
2015,06,17,16,09,23.30
2015,06,17,16,10,23.30
2015,06,17,16,11,23.40
2015,06,17,16,12,23.40
2015,06,17,16,13,23.50
2015,06,17,16,14,23.50
2015,06,17,16,15,23.60
2015,06,17,16,16,23.70
2015,06,17,16,17,23.70
2015,06,17,16,18,23.70
2015,06,17,16,19,23.70
2015,06,17,16,20,23.60
2015,06,17,16,21,23.60
2015,06,17,16,22,23.60
2015,06,17,16,23,23.60
2015,06,17,16,24,23.50
2015,06,17,16,25,23.50
2015,06,17,16,26,23.50
2015,06,17,16,27,23.50
2015,06,17,16,28,23.40
2015,06,17,16,29,23.40
2015,06,17,16,30,23.40
2015,06,17,16,31,23.40
2015,06,17,16,32,23.40
2015,06,17,16,33,23.40
2015,06,17,16,34,23.40
2015,06,17,16,35,23.40
2015,06,17,16,36,23.40
2015,06,17,16,37,23.40
2015,06,17,16,38,23.50
2015,06,17,16,39,23.60
2015,06,17,16,40,23.60
2015,06,17,16,41,23.50
2015,06,17,16,42,23.40
2015,06,17,16,43,23.40
2015,06,17,16,44,23.30
2015,06,17,16,45,23.30
2015,06,17,16,46,23.30
2015,06,17,16,47,23.30
2015,06,17,16,48,23.40
2015,06,17,16,49,23.50
2015,06,17,16,50,23.60
2015,06,17,16,51,23.70
2015,06,17,16,52,23.80
2015,06,17,16,53,23.90
2015,06,17,16,54,24.00
2015,06,17,16,55,24.00
2015,06,17,16,56,24.00
2015,06,17,16,57,24.00
2015,06,17,16,58,23.90
2015,06,17,16,59,23.90
2015,06,17,17,00,23.90
2015,06,17,17,01,23.80
2015,06,17,17,02,23.90
2015,06,17,17,03,23.90
2015,06,17,17,04,23.90
2015,06,17,17,05,23.90
2015,06,17,17,06,23.80
2015,06,17,17,07,23.80
2015,06,17,17,08,23.80
2015,06,17,17,09,23.80
2015,06,17,17,10,23.80
2015,06,17,17,11,23.80
2015,06,17,17,12,23.90
2015,06,17,17,13,23.90
2015,06,17,17,14,24.00
2015,06,17,17,15,24.00
2015,06,17,17,16,24.10
2015,06,17,17,17,24.10
2015,06,17,17,18,24.20
2015,06,17,17,19,24.30
2015,06,17,17,20,24.30
2015,06,17,17,21,24.40
2015,06,17,17,22,24.40
2015,06,17,17,23,24.40
2015,06,17,17,24,24.30
2015,06,17,17,25,24.20
2015,06,17,17,26,24.10
2015,06,17,17,27,24.10
2015,06,17,17,28,24.00